Regional Weather Roundup
Issued by NWS Boston, MA

Home | Current Version | Previous Version | Text Only | Print | Product List | Glossary On
Versions: 1 2 3 4 5 6 7 8 9 10 11 12 13 14 15 16 17 18 19 20 21 22 23 24 25 26 27 28 29 30 31 32 33 34 35 36 37 38 39 40 41 42 43 44 45 46 47 48 49 50
000
ASUS41 KBOX 111010
RWRBOX

REGIONAL WEATHER ROUNDUP
NATIONAL WEATHER SERVICE TAUNTON MA
500 AM EST SUN DEC 11 2016

NOTE:  "FAIR" INDICATES FEW OR NO CLOUDS BELOW 12,000 FEET WITH NO
SIGNIFICANT WEATHER AND/OR OBSTRUCTIONS TO VISIBILITY.

MAZALL-111100-
EASTERN MASSACHUSETTS

CITY           SKY/WX    TMP DP  RH WIND       PRES   REMARKS
BOSTON         CLEAR     21   9  59 NW5       30.48S WCI  15
BEVERLY        CLEAR     13   7  77 CALM      30.46S
LAWRENCE       CLEAR     14   9  80 CALM      30.48R
BEDFORD        CLEAR     10   4  76 CALM      30.46S
BLUE HILL        N/A     17   3  54 W7        30.41S WCI   8
NORWOOD        CLEAR      9   5  84 CALM      30.47R
MARSHFIELD     CLEAR     12   9  85 W5        30.47S WCI   4
PLYMOUTH       CLEAR     10   5  80 CALM      30.47R
TAUNTON        CLEAR      7   2  80 CALM      30.47R
NEW BEDFORD    CLEAR     13   8  81 CALM      30.47R
$$

MAZALL-111100-
CAPE COD AND THE ISLANDS

CITY           SKY/WX    TMP DP  RH WIND       PRES   REMARKS
FALMOUTH         N/A     10   7  85 MISG      30.46S
HYANNIS        CLEAR     17   8  67 W3        30.46R
CHATHAM        CLEAR     20  11  68 CALM      30.46S
PROVINCETOWN   PTCLDY    27  15  61 NW10      30.46S WCI  17
NANTUCKET      CLEAR     26  12  55 N8        30.46R WCI  18
MARTHAS VNYRD  CLEAR     11   5  77 CALM      30.47R
$$

MAZALL-111100-
CENTRAL AND WESTERN MASSACHUSETTS

CITY           SKY/WX    TMP DP  RH WIND       PRES   REMARKS
WORCESTER      CLEAR     17   9  70 W8        30.40R WCI   7
FITCHBURG      CLEAR     10   5  80 CALM      30.46R
ORANGE         CLEAR      6   3  87 CALM      30.45R
SPRINGFIELD    CLEAR     10   6  86 CALM      30.44S
WESTFIELD      CLEAR      8   8 100 CALM      30.45S
NORTH ADAMS    MOCLDY    19  13  77 SE6       30.42S WCI  11
PITTSFIELD     CLEAR     13   9  84 CALM      30.37S
$$

RIZALL-111100-
RHODE ISLAND

CITY           SKY/WX    TMP DP  RH WIND       PRES   REMARKS
PROVIDENCE     CLEAR     16  11  80 W3        30.48R
NEWPORT        CLEAR     22  13  68 N5        30.47R WCI  16
BLOCK ISLAND   CLEAR     29  17  61 N6        30.47R WCI  23
SMITHFIELD     CLEAR     13   9  84 CALM      30.45R
WESTERLY       PTCLDY    15  10  80 CALM      30.48S
$$

CTZALL-111100-
CONNECTICUT

CITY           SKY/WX    TMP DP  RH WIND       PRES   REMARKS
BRADLEY INTL   CLEAR     13   8  81 CALM      30.46S
HARTFORD       CLEAR     14  12  92 S3        30.48S
BRIDGEPORT     CLEAR     23  17  78 CALM      30.48S
DANBURY        CLEAR     16  12  84 CALM      30.47R
GROTON         PTCLDY    20  14  77 CALM      30.48R
NEW HAVEN      CLEAR     17  14  88 CALM      30.48R
CHESTER        FAIR      21  14  73 CALM      30.45R
MERIDEN        CLEAR     14   9  80 CALM      30.48S
WILLIMANTIC    CLEAR     13   9  84 CALM      30.48S
OXFORD         CLEAR     18  12  79 CALM      30.44R
$$

MEZ002-015-021-024-NHZ003-005-008-011-012-014-VTZ005-008-111100-
NORTHERN NEW ENGLAND

CITY           SKY/WX    TMP DP  RH WIND       PRES   REMARKS
PORTLAND ME    CLEAR      9   4  80 W6        30.45R WCI  -1
BANGOR ME      CLEAR     10   4  76 W7        30.40R WCI  -1
CONCORD NH     CLEAR      5  -1  76 CALM      30.46R
MANCHESTER NH  CLEAR     11   5  77 CALM      30.45S
NASHUA NH      CLEAR      6   2  83 NW3         N/A
PORTSMOUTH NH  PTCLDY    14   7  75 W2        30.45R
JAFFREY NH     MOCLDY     8   4  83 S3        30.40R
KEENE NH       PTCLDY     4   1  88 CALM      30.46R
BURLINGTON VT  CLOUDY    17   9  70 CALM      30.42R
MT. WASHINGTON FOG       -8  -8 100 W45         N/A  VSB 0   WCI -41
$$

NYZ052-076-111100-
EASTERN NEW YORK

CITY           SKY/WX    TMP DP  RH WIND       PRES   REMARKS
ALBANY         PTCLDY    14  11  87 CALM      30.45S
NEW YORK CITY  MOCLDY    31  15  52 NW9       30.50R WCI  23
$$

ANZALL-111100-
MARINE OBSERVATIONS

STATION/POSITION TIME  TEMP    WIND        PRES    VSBY  WAVE
                       AIR SEA DIR/SP/G                  HT/PER
                 (UTC) (F)     (DEG/KT/KT) (MB)    (MI)  (FT/S)
BOSTON BUOY      0950   27 49  300/ 10/ 14 1031.1S         1/ 4
BUZZARDS BAY     0900   28     340/ 10/ 11 1032.1R
NANTUCKET SOUND  NOT AVBL
MASS BAY-STELLWA NOT AVBL
ISLE OF SHOALS   0900   22     300/ 13/ 15 1031.0R
S OF BLOCK IS    0955      54                N/A           3/ 4
$$

......................KEY.........................
  SKY/WX - SKY CONDITION/PRESENT WEATHER
  TMP    - TEMPERATURE IN FAHRENHEIT
  DWPT   - DEWPOINT IN FAHRENHEIT
  RH     - RELATIVE HUMIDITY IN PERCENT
  WIND   - DIRECTION AND SPEED IN MPH
  PRES   - MEAN SEA LEVEL PRESSURE IN INCHES OF HG
  WCI    - WIND CHILL INDEX
  VSB    - VISIBILITY IN MILES
  HX     - HEAT INDEX
  TC     - TEMPERATURE IN CELSIUS
  VRB    - VARIABLE WIND DIRECTION
  N/A    - NOT AVAILABLE



USA.gov is the U.S. government's official web portal to all federal, state and local government web resources and services.